Probability
0 0 0 0 0 0 0 0 0 0 0 0 1 1 1 1 1 0 0 0 1 2 1 6 16 19 14 7 4 3 2 2 1 0 0 0 1 1 1 1 1 0 0 0 0 0 0 0 0
0 0 0 0 0 0 0 0 0 0 0 1 2 2 2 2 2 1 0 1 2 2 1 5 14 17 11 6 3 2 1 1 0 0 0 0 0 0 0 0 0 0 0 0 0 0 0 0 0
0 0 0 0 0 0 0 0 0 0 0 1 2 3 3 2 2 1 0 1 3 3 2 5 10 11 8 4 2 1 0 0 0 0 0 0 0 0 0 0 0 0 0 0 0 0 0 0 0
0 0 0 0 0 0 0 0 0 0 0 1 3 3 1 1 1 1 0 1 3 3 3 4 6 6 4 2 1 0 0 0 0 0 0 0 0 0 0 0 0 0 0 0 0 0 0 0 0
0 0 0 0 0 0 0 0 0 0 1 2 4 3 1 1 2 1 0 1 2 3 3 4 3 2 1 1 0 0 0 0 0 0 0 0 0 0 0 0 0 0 0 0 0 0 0 0 0
0 0 0 0 0 0 0 0 0 1 2 3 5 4 2 1 1 1 0 0 1 2 2 2 2 1 0 0 0 0 0 0 0 0 0 0 0 0 0 0 0 0 0 0 0 0 0 0 0
0 0 0 0 0 0 0 0 0 1 1 2 4 3 2 1 1 1 1 0 0 1 1 0 0 0 0 0 0 0 0 0 0 0 0 0 0 0 0 0 0 0 0 0 0 0 0 0 0
0 0 0 0 0 0 0 0 0 0 0 1 2 1 1 1 4 6 4 1 0 0 0 0 0 0 0 0 0 0 0 0 0 0 0 0 0 0 0 0 0 0 0 0 0 0 0 0 0
0 0 0 0 0 0 0 0 0 0 0 1 1 1 1 5 12 16 13 5 1 0 0 0 0 0 0 0 0 0 0 0 0 0 0 0 0 0 0 0 0 0 0 0 0 0 1 1 1
0 0 0 0 0 0 0 0 0 0 0 1 2 2 3 8 19 26 23 13 5 1 0 0 0 0 0 0 0 0 0 0 0 0 0 0 0 0 0 0 0 0 0 0 0 0 1 2 2
0 0 0 0 0 0 0 0 0 0 0 1 3 3 4 8 16 27 28 19 9 3 0 0 0 0 0 0 0 0 0 0 0 0 0 0 0 0 0 0 0 0 0 0 0 0 1 1 1
0 0 0 0 0 0 0 0 0 0 0 1 3 5 4 5 9 17 24 21 11 4 1 0 0 0 0 0 0 0 0 0 0 0 0 0 0 0 0 0 0 0 0 0 0 0 0 0 0
0 0 0 0 0 0 0 0 0 0 1 3 5 6 5 4 4 9 18 20 14 6 2 0 0 0 0 0 0 0 0 0 0 0 0 0 0 0 0 1 0 0 0 0 0 0 0 0 0
0 0 0 0 0 0 0 0 0 0 2 6 7 6 6 7 7 8 15 22 19 11 5 2 0 0 0 0 0 0 0 0 0 0 0 0 0 0 1 1 0 0 0 0 0 0 0 0 0
0 0 0 0 0 0 0 0 0 0 2 5 6 7 9 12 13 11 14 23 26 20 12 6 2 1 0 1 1 0 0 0 0 0 0 1 1 2 2 1 0 0 0 0 0 0 0 0 0
0 0 0 0 0 0 0 0 0 0 1 3 4 7 9 11 12 11 11 19 28 30 25 21 18 16 15 12 7 5 4 4 3 3 4 5 5 4 3 1 0 0 0 0 0 0 0 0 0
0 0 0 0 0 0 0 0 0 1 2 3 4 8 12 12 11 11 11 16 28 38 41 42 45 48 47 41 32 26 22 18 15 12 12 11 10 6 3 1 0 0 0 0 0 0 0 0 0
0 0 0 0 0 0 0 0 1 2 3 4 6 12 20 21 19 18 17 20 31 44 51 56 66 74 75 72 65 58 48 38 29 25 20 17 14 10 5 2 0 0 0 0 0 0 0 0 0
0 0 0 0 0 0 0 1 2 3 6 9 12 21 30 33 30 28 27 27 35 46 53 60 71 81 87 85 79 71 58 43 31 24 20 16 14 11 8 5 2 0 0 0 0 0 0 0 0
0 0 0 0 0 0 1 2 4 7 14 20 24 31 39 42 40 38 35 34 39 47 55 63 73 83 87 84 74 61 46 32 20 13 10 8 7 7 7 6 3 0 0 0 0 0 0 0 0
0 0 0 0 0 0 1 3 7 15 26 34 39 46 52 53 50 47 45 45 49 54 59 68 76 82 83 77 66 51 37 24 13 6 2 1 2 3 4 3 1 0 0 0 0 0 0 0 0
0 0 0 0 0 0 0 2 9 21 33 42 51 59 65 65 59 57 58 58 59 62 66 73 79 80 77 71 62 50 37 23 10 3 0 0 0 1 1 1 0 0 0 0 0 0 0 0 0
0 0 0 0 0 0 0 1 7 19 30 42 54 61 65 67 64 63 64 64 65 67 70 75 77 75 70 65 57 46 31 16 5 1 0 0 0 0 0 0 0 0 0 0 0 0 0 0 0
0 0 0 0 0 0 0 1 8 17 26 38 50 54 53 55 57 56 57 60 63 65 67 69 67 62 57 51 44 33 21 9 2 0 0 0 0 0 0 0 0 0 0 0 0 0 0 0 0
0 0 0 0 0 0 0 5 14 20 25 34 41 42 41 41 42 42 44 48 51 51 53 52 48 41 36 32 27 19 11 4 1 0 0 0 0 0 0 0 0 0 0 0 0 0 0 0 0
0 0 0 0 0 0 2 9 19 21 22 24 26 27 28 28 29 29 29 29 30 31 32 32 29 24 20 17 14 9 4 1 0 0 0 0 0 0 0 0 0 0 0 0 0 0 0 0 0
0 0 0 0 0 0 2 9 16 19 19 17 15 14 14 14 15 15 13 12 12 13 14 15 15 13 10 8 5 3 1 0 0 0 0 0 0 0 0 0 0 0 0 0 0 0 0 0 0
0 0 0 0 0 0 1 4 11 18 18 14 10 7 5 3 3 4 3 2 3 3 4 5 5 4 3 2 1 1 0 0 0 0 0 0 0 0 0 0 0 0 0 0 0 0 0 0 0
0 0 0 0 0 0 0 1 8 16 15 10 7 4 1 0 0 0 0 0 0 0 0 0 0 0 0 0 0 0 0 0 0 0 0 0 0 0 0 0 0 0 0 0 0 0 0 0 0
0 0 0 0 0 0 0 1 6 14 12 6 3 1 0 0 0 0 0 0 0 0 0 0 0 0 0 0 0 0 0 0 0 0 0 0 0 0 0 0 0 0 0 0 0 0 0 0 0
Wind_Speed
10 8 1 3 5 4 3 5 3 3 2 1 6 8 8 5 4 4 4 16 18 16 12 15 18 19 19 19 18 17 16 16 15 15 15 15 15 15 15 14 14 13 13 12 11 11 10 10 10
5 5 4 5 5 2 6 4 3 5 2 6 7 7 7 6 7 10 8 16 19 17 11 13 18 18 19 19 18 17 17 16 15 15 14 14 14 14 14 14 13 12 11 11 10 9 9 8 8
5 1 3 3 2 4 6 5 3 4 1 5 5 4 6 8 9 8 11 19 17 14 10 14 19 19 19 19 18 17 17 16 16 15 15 14 14 13 13 13 13 11 10 9 9 8 7 6 6
3 5 4 2 6 8 8 13 8 5 1 3 7 6 4 5 7 13 19 19 17 13 11 14 19 19 18 18 18 18 17 16 16 15 15 14 14 13 13 13 12 11 9 8 7 6 5 4 4
4 4 2 3 8 9 9 11 9 7 2 4 8 7 4 4 17 22 20 19 18 13 9 12 17 18 18 18 18 17 17 16 15 15 15 14 13 12 12 12 11 10 9 8 7 5 4 3 2
3 3 1 6 10 11 10 7 8 4 2 5 8 8 3 10 19 19 18 16 17 16 11 11 17 19 18 18 18 17 16 16 15 15 15 14 13 12 12 11 11 10 9 8 6 5 4 2 1
4 4 5 7 9 12 15 9 6 4 3 4 8 8 5 10 16 18 16 15 15 15 12 9 10 14 17 17 17 17 16 16 16 15 15 14 14 13 12 11 10 9 8 8 7 5 5 3 2
6 4 5 6 7 13 13 8 5 4 4 4 6 11 10 11 14 16 14 14 13 13 12 11 9 8 9 11 16 17 16 16 16 16 16 15 15 14 13 11 10 10 9 9 8 7 6 5 4
3 3 6 8 7 11 11 8 8 5 1 2 3 7 14 17 17 17 14 12 11 12 10 11 10 9 8 9 13 14 16 15 15 14 16 13 7 7 8 10 11 11 11 10 9 7 6 6 4
5 5 10 8 8 10 13 11 9 4 3 0 3 6 15 17 18 19 18 17 15 14 12 10 11 11 10 9 8 6 7 8 7 7 8 6 5 5 8 10 13 13 11 10 9 8 6 5 2
6 8 8 11 14 12 12 13 7 2 4 7 13 16 17 17 16 17 18 18 18 17 15 13 12 12 10 7 7 5 4 5 6 7 7 6 5 4 4 3 6 7 8 5 4 4 2 2 2
5 7 8 10 13 10 11 9 6 5 8 11 16 20 17 17 16 15 16 15 15 16 17 15 14 12 10 9 8 7 5 5 5 7 8 6 4 4 4 4 4 4 3 3 2 2 2 2 2
7 10 12 13 13 13 11 9 5 6 4 7 9 13 13 13 12 10 12 14 14 15 16 17 16 15 12 10 8 9 7 7 7 7 7 7 5 5 5 5 4 4 3 3 2 2 2 1 1
7 8 9 10 12 10 10 10 2 6 3 8 10 11 12 12 11 8 9 12 14 15 15 16 17 16 13 11 9 8 8 7 7 6 8 8 6 5 5 4 4 3 3 2 2 2 1 2 3
5 7 10 9 9 8 5 8 6 7 4 6 9 11 12 11 10 10 11 12 14 14 14 15 17 16 15 13 12 9 8 8 7 7 8 7 6 6 5 4 3 3 2 3 2 2 2 3 4
4 3 5 10 6 7 4 10 11 5 5 7 9 11 12 12 14 12 11 10 11 12 13 16 16 16 14 12 10 7 7 7 6 6 6 7 7 7 5 4 4 3 3 3 3 3 3 3 3
3 2 5 9 5 4 5 10 11 6 6 8 10 13 13 12 10 9 9 10 11 12 12 14 13 14 13 11 8 6 5 6 5 5 4 5 5 6 5 4 3 4 3 3 3 3 3 3 3
4 4 4 6 6 2 6 13 12 7 6 7 10 12 12 11 10 9 7 8 9 10 10 11 11 12 11 9 7 5 5 4 4 4 4 5 4 5 5 4 4 4 4 3 3 4 4 3 2
5 5 8 9 8 4 10 15 14 8 4 4 7 11 11 11 9 8 7 7 8 8 9 11 12 13 11 9 8 6 5 5 5 5 6 6 6 6 5 4 4 4 4 4 4 3 4 3 2
6 7 10 11 9 6 10 14 9 2 3 5 8 10 11 9 7 7 7 6 8 11 11 10 11 12 10 6 5 5 6 5 5 5 7 7 7 6 5 5 4 4 4 5 4 3 3 2 2
8 7 8 9 10 7 3 6 2 3 7 9 8 8 7 9 9 8 7 8 8 8 9 8 8 9 8 9 8 8 7 5 4 5 5 6 7 7 6 6 5 5 4 4 3 3 4 2 2
8 8 7 6 3 5 2 3 4 3 7 10 10 10 9 8 7 6 6 5 5 6 6 7 8 9 10 11 11 11 8 6 5 5 6 7 7 7 7 7 6 6 5 5 4 4 3 3 2
9 8 4 3 1 3 4 2 6 3 6 8 10 11 11 10 9 8 7 6 5 5 7 8 10 9 9 10 12 11 9 8 7 8 9 7 7 7 7 7 6 6 5 6 6 5 5 3 3
7 2 4 5 5 2 3 2 4 3 3 9 10 11 11 11 11 10 10 9 9 9 8 9 11 10 9 9 9 11 13 12 11 9 9 7 5 6 7 7 7 6 6 6 6 6 7 5 5
2 5 4 5 4 5 4 2 1 7 8 11 12 11 11 10 10 11 12 12 11 11 11 11 13 12 11 11 11 11 12 12 12 10 9 7 6 5 6 6 6 6 6 6 6 6 5 5 5
3 9 7 4 2 4 3 3 4 10 12 13 12 11 11 11 11 11 12 12 12 13 13 13 14 14 13 13 12 11 11 9 8 9 8 7 6 5 6 7 7 7 6 6 6 5 5 5 5
3 4 8 6 1 1 2 4 5 9 11 12 11 11 11 10 10 11 12 12 13 14 14 13 15 14 13 14 13 12 12 11 10 10 9 7 6 6 7 7 8 7 7 6 6 5 5 5 5
5 4 5 5 3 2 3 3 4 9 10 10 10 10 9 9 10 11 11 12 12 13 13 14 15 14 13 12 11 11 11 11 10 9 9 7 7 7 7 7 7 7 7 7 6 5 5 6 5
2 3 3 4 4 4 2 2 4 8 11 11 10 9 9 9 9 10 10 11 12 12 12 13 13 14 13 13 12 12 11 11 10 9 8 7 7 7 7 7 7 7 7 7 7 6 6 7 5
6 3 3 4 2 3 3 2 7 12 12 12 10 9 9 9 9 9 10 11 11 12 12 13 12 13 12 12 13 12 11 10 10 9 8 7 7 7 7 7 8 8 8 8 8 7 6 5 5
Wind_Direction
328 318 320 69 48 40 267 246 209 246 259 111 110 110 105 100 145 156 128 140 137 141 147 146 143 140 137 134 132 129 125 121 117 113 110 109 108 106 105 104 102 100 97 93 89 84 79 76 75
322 328 21 57 78 332 275 239 199 234 194 114 103 104 93 79 95 111 122 141 138 140 143 145 143 141 140 138 136 134 131 128 124 120 117 115 113 111 110 109 107 105 102 98 94 89 83 78 74
313 347 57 63 151 205 258 282 304 299 216 129 117 90 97 119 120 127 141 140 135 137 140 146 144 143 143 142 141 139 137 135 131 128 125 122 120 118 117 116 115 113 110 107 103 98 92 84 77
19 26 40 73 251 242 242 277 292 293 329 77 109 76 64 118 130 134 139 140 135 137 142 146 145 145 145 146 146 144 143 141 138 135 131 129 126 124 124 124 124 124 122 120 117 113 109 100 88
58 61 18 291 266 265 268 281 290 273 203 122 105 91 46 41 116 133 143 143 139 138 141 145 144 146 147 148 149 149 147 145 142 139 137 134 132 132 132 134 136 136 137 136 136 136 137 132 109
50 75 155 255 269 280 287 297 306 289 145 130 109 104 88 124 129 143 146 146 142 142 142 144 147 149 150 151 151 150 149 147 145 143 142 140 140 140 141 143 146 149 151 152 156 164 177 189 180
135 142 213 239 270 284 283 297 292 268 199 188 134 109 126 146 145 149 146 142 142 143 143 144 149 151 152 151 151 151 151 149 148 148 147 147 148 149 150 152 155 159 162 167 177 192 210 226 241
155 145 225 238 254 272 279 298 287 276 239 171 135 137 160 166 145 143 140 139 142 146 148 148 147 147 147 150 154 154 153 152 153 153 154 155 156 158 160 161 165 169 175 183 195 209 225 242 256
130 126 222 229 233 260 286 307 305 315 206 189 173 161 159 147 133 137 137 139 147 153 155 153 152 151 148 150 158 157 157 158 157 160 162 159 160 161 166 173 177 181 187 195 206 219 236 254 268
146 186 227 233 240 262 285 290 291 317 315 7 95 123 143 141 140 148 154 158 163 164 166 161 159 158 157 160 152 156 160 161 160 163 164 162 165 175 179 187 188 190 195 204 214 229 248 266 277
180 199 229 247 253 260 277 283 282 240 240 193 161 155 156 148 148 159 164 167 170 169 169 168 167 165 167 158 157 164 161 163 166 170 171 170 172 182 188 184 194 196 199 204 221 236 251 269 274
231 245 233 247 256 260 262 272 281 242 220 198 170 158 157 155 156 162 168 171 169 171 174 171 171 171 174 164 169 171 170 174 179 183 181 176 177 182 182 182 185 191 192 192 207 219 238 262 289
237 255 259 255 257 255 261 263 257 266 232 159 153 150 156 158 157 156 160 164 166 176 177 175 175 176 176 169 177 178 179 182 187 187 188 184 180 180 179 181 182 190 189 192 196 212 220 188 80
234 245 260 259 255 254 254 264 251 261 173 143 155 163 167 163 159 153 157 168 173 178 182 179 179 180 177 177 182 181 183 183 186 189 191 187 180 174 175 174 174 186 187 185 174 177 153 110 97
246 273 289 275 256 250 252 284 250 230 182 169 176 176 175 170 168 172 175 177 179 181 183 184 182 181 179 180 184 181 183 180 185 190 188 183 176 171 166 158 159 167 155 142 121 110 101 98 92
340 316 288 281 254 254 213 262 265 231 187 202 190 179 179 180 182 183 180 182 183 181 182 186 185 182 181 179 181 177 177 176 180 178 175 176 172 162 150 147 150 143 124 116 114 106 91 82 93
351 261 265 284 267 240 211 248 262 234 199 211 196 187 183 184 183 178 184 183 182 185 183 185 182 177 176 168 161 153 152 159 162 156 156 159 152 143 136 136 132 125 110 101 111 94 99 99 101
250 260 277 273 287 278 249 251 258 249 228 219 196 180 177 173 184 178 187 192 180 182 182 185 175 169 162 152 138 124 115 118 117 123 126 124 118 118 114 110 108 108 105 99 98 93 77 85 96
246 280 288 281 280 277 258 254 254 253 237 213 177 170 173 175 175 169 175 185 176 176 185 187 173 168 161 159 152 137 126 114 101 93 94 96 97 100 102 104 98 100 107 112 108 97 83 59 41
270 280 284 291 292 286 262 252 249 239 187 173 161 161 159 150 136 151 163 178 189 187 189 188 176 169 165 156 133 113 110 96 87 87 76 75 84 86 94 95 92 91 100 98 94 102 102 66 38
266 249 258 272 304 320 271 277 262 73 80 77 82 96 112 133 143 152 155 170 177 178 180 182 172 161 145 125 115 109 98 91 86 85 79 70 77 77 82 87 89 83 89 96 88 92 112 119 53
260 251 248 266 321 307 20 269 283 118 77 72 68 67 73 85 106 114 117 135 152 161 157 151 143 140 140 139 138 138 136 131 116 105 94 80 75 79 80 83 84 82 81 85 79 74 92 118 113
237 250 255 261 273 332 354 109 291 63 88 85 75 67 63 63 72 80 85 88 90 113 132 135 128 127 132 137 139 133 126 120 120 113 104 92 78 74 79 84 86 84 82 82 77 73 71 76 91
236 309 4 43 70 357 270 119 299 356 131 114 91 75 65 62 61 62 63 67 68 75 91 108 110 106 108 111 120 126 128 126 121 114 108 98 89 79 79 83 83 83 83 80 77 76 76 75 74
136 88 34 9 31 251 263 121 8 39 78 103 98 81 67 59 57 56 56 58 62 69 78 88 96 93 92 96 98 106 115 117 118 118 114 109 99 90 86 88 86 83 81 80 78 75 71 70 74
181 136 152 173 196 289 339 103 85 82 81 84 84 80 71 63 57 56 55 56 61 63 68 79 86 86 86 89 91 93 98 100 102 104 107 102 100 98 93 87 83 78 76 75 72 70 66 67 69
156 169 168 139 160 308 303 114 124 110 98 92 86 79 72 67 64 62 61 60 62 64 66 75 83 84 84 88 90 91 92 97 101 100 96 96 99 100 91 86 81 75 71 70 70 67 60 63 62
158 153 92 109 147 243 279 180 189 158 130 108 94 86 78 74 70 68 67 67 67 69 72 74 79 83 84 86 89 93 92 94 97 97 97 95 92 90 89 85 81 75 68 66 65 60 56 61 54
61 57 94 130 154 158 247 314 339 145 128 114 101 90 83 79 76 76 76 75 75 74 75 77 79 81 83 85 87 88 89 92 93 94 94 94 90 87 85 84 79 73 65 60 62 61 62 63 52
89 84 109 139 228 166 150 46 33 96 104 107 105 98 91 86 83 82 83 83 81 80 79 80 80 82 84 88 90 89 89 89 89 87 85 84 81 79 79 77 74 70 64 58 60 59 53 55 48